Location: Gerlach
(40.6516°N, 119.3568°W)
Time: 15:43:54
(UTC-07:00)

A-11 Canister half - Pass Details

Date: 23 February 2024
Orbit: 1525 x 1683 km, 47.3° (Epoch: 21 April)

Event Time Altitude Azimuth Distance (km) Brightness Sun altitude
Rises 18:49:00 0° 191° (S) 4,798 11.8 -13.5°
Reaches altitude 10° 18:52:51 10° 179° (S) 3,789 11.1 -14.2°
Maximum altitude 19:00:08 25° 129° (SE) 2,742 9.9 -15.6°
Enters shadow 19:03:25 21° 100° (E) 2,968 9.9 -16.3°
